Location: Bouchavesnes-Bergen
(49.9859°N, 2.9203°E)
Time: 23:33:38
(UTC+00:00)

IDEFIX/ARIANE 42P - Pass Details

Date: 29 June 2021
Orbit: 784 x 803 km, 98.4° (Epoch: 30 July)

Event Time Altitude Azimuth Distance (km) Brightness Sun altitude
Rises 02:22:08 0° 16° (NNE) 3,310 7.4 -9.6°
Reaches altitude 10° 02:24:30 10° 20° (NNE) 2,373 6.5 -9.4°
Maximum altitude 02:29:43 63° 102° (ESE) 882 3.0 -8.9°
Drops below altitude 10° 02:34:51 10° 183° (S) 2,344 4.5 -8.4°
Enters shadow 02:35:54 - 185° (S) 2,758 4.9 -8.3°
